Location: Mannheim
(49.4880°N, 8.4650°E)
Time: 12:34:17
(UTC+01:00)

ISS - Pass Details

Date: 23 September 2018
Orbit: 401 x 408 km, 51.6° (Epoch: 19 November)

Event Time Altitude Azimuth Distance (km) Brightness Sun altitude
Rises 20:53:43 0° 222° (SW) 2,338 0.4 -15.4°
Reaches altitude 10° 20:55:54 10° 213° (SSW) 1,478 -0.8 -15.8°
Enters shadow 20:58:48 33° 153° (SSE) 718 -3.0 -16.2°
